Cloud_Cover
68 37 81 100 100 96 100 100 100 97 100 100 100 99 52 34 89 88 52 18 18 51 58 63 93 100 100 100 100 100 98 70 100 14 59 100 74 74 7 4 5 16 26 5 36 59 5 14 5
89 86 100 100 100 100 100 100 100 98 98 100 95 88 100 100 100 100 74 100 90 100 100 100 100 100 100 100 100 100 100 47 42 100 40 100 5 5 7 2 5 31 18 5 5 40 99 68 65
100 100 100 100 94 100 100 100 100 100 97 56 54 4 1 0 0 57 81 60 2 91 58 98 100 98 100 100 100 87 100 63 58 91 8 36 11 38 5 5 8 98 69 96 44 100 100 100 100
100 100 100 100 100 100 100 100 100 12 4 4 0 0 2 0 5 1 0 1 0 0 4 17 94 100 100 100 100 68 97 41 100 7 32 5 5 74 50 5 49 100 100 100 90 93 100 100 86
100 100 100 100 100 100 100 100 8 0 3 88 97 2 0 0 0 0 1 5 0 4 4 5 5 99 92 100 71 100 72 94 86 5 5 17 2 10 5 35 99 100 100 100 100 100 97 97 74
100 100 90 100 100 100 100 36 5 0 4 3 0 0 0 0 0 0 0 4 4 5 4 5 6 99 100 97 100 89 83 42 7 5 5 14 8 5 6 77 100 100 100 100 100 100 100 100 88
100 98 100 100 100 100 7 2 3 0 0 0 0 0 0 0 0 0 0 0 1 1 4 20 62 100 14 27 90 60 36 44 5 5 5 66 83 31 5 100 100 82 100 64 84 100 54 100 100
100 100 24 6 86 45 51 14 3 0 0 0 0 0 0 6 11 2 1 0 5 0 5 54 100 100 29 90 6 90 100 28 5 5 6 44 7 24 71 100 100 100 99 79 9 99 98 98 100
100 100 12 13 0 0 31 0 0 0 4 0 0 0 5 38 24 2 5 2 4 5 4 9 5 5 5 11 57 27 100 6 5 5 94 5 5 5 5 100 99 100 100 100 100 38 54 70 100
68 47 88 1 0 0 2 5 0 1 5 0 15 98 100 62 79 10 6 4 1 2 5 5 22 5 5 89 53 5 95 5 5 98 19 5 4 5 5 100 100 100 100 99 10 13 100 100 100
0 52 44 5 3 0 0 1 0 4 1 1 100 100 100 90 86 85 98 35 5 44 68 5 5 5 5 41 84 84 100 4 81 69 100 86 34 5 93 98 100 100 100 18 10 79 100 100 100
4 8 1 0 0 0 0 0 0 5 3 64 100 100 97 64 97 78 9 100 33 92 70 6 8 32 46 66 16 43 4 0 46 99 4 13 4 5 73 91 91 99 5 5 66 33 100 100 100
4 0 0 0 0 0 0 0 0 15 63 22 98 92 54 6 97 90 10 76 5 99 77 51 44 44 98 5 40 11 0 1 17 66 4 6 5 2 17 93 46 56 99 100 35 95 97 100 100
0 15 34 4 0 0 0 0 0 0 5 5 5 14 5 5 41 100 100 100 98 100 93 59 48 95 76 1 40 84 0 46 61 28 5 5 6 6 3 50 90 94 83 100 100 100 94 88 81
1 64 80 19 12 57 0 0 0 0 3 5 5 5 4 4 80 100 38 99 88 100 100 100 100 100 56 5 99 55 5 15 99 9 5 57 4 4 5 21 56 62 55 99 96 100 100 100 99
5 24 53 100 8 4 7 62 0 0 0 0 5 22 1 0 38 84 42 96 83 58 24 94 100 100 100 100 98 4 2 0 1 5 5 93 95 18 5 98 5 46 40 48 50 54 100 100 94
79 12 4 35 22 1 0 0 0 0 0 0 0 1 3 0 4 18 98 95 71 88 100 63 16 72 91 5 4 0 2 0 0 9 6 27 91 41 0 26 5 14 31 43 36 57 100 100 100
51 12 3 5 1 0 0 0 0 0 0 0 0 0 0 0 0 3 5 3 3 14 55 33 5 0 69 8 0 0 0 0 0 27 97 9 40 8 0 2 5 4 9 13 64 100 100 10 64
94 25 31 0 2 5 86 4 0 0 0 0 0 0 0 0 0 0 0 0 0 0 0 0 0 0 1 4 0 0 0 0 0 58 70 0 39 0 0 0 0 5 10 30 5 70 5 71 16
96 29 5 35 5 81 14 2 0 0 0 0 0 0 0 0 0 0 0 0 0 0 0 0 0 0 0 0 0 0 0 0 0 33 97 100 78 0 0 3 2 0 3 0 2 2 4 7 12
100 26 5 97 47 5 2 3 0 0 0 0 0 0 0 0 0 0 0 0 0 0 0 0 0 0 0 0 0 0 0 23 74 61 92 34 32 2 0 0 0 1 3 5 1 5 4 39 24
26 100 58 100 7 17 4 0 3 0 0 0 1 4 4 0 3 4 0 0 0 0 0 0 0 0 0 0 0 0 0 0 0 0 62 0 0 0 0 0 0 0 0 5 4 0 41 5 9
2 31 100 28 7 4 5 1 4 0 0 0 0 0 0 0 0 0 4 5 5 4 0 2 8 25 44 5 1 0 0 0 0 0 82 0 0 0 0 0 0 0 0 0 0 0 0 0 4
5 5 2 5 4 57 57 4 0 0 0 0 0 0 0 0 0 0 0 0 1 5 5 4 0 3 27 6 39 5 5 5 3 0 0 0 0 0 4 0 0 0 0 0 0 0 0 2 34
3 2 0 4 5 71 100 4 0 0 0 0 0 0 0 0 0 0 0 0 0 0 2 2 1 4 0 1 5 4 4 8 5 5 4 0 0 4 5 0 0 0 0 0 0 0 0 2 67
5 2 28 5 5 5 14 71 0 0 0 0 0 0 0 0 0 0 0 0 0 0 0 0 0 3 0 0 0 1 5 5 8 5 5 5 21 11 5 0 0 0 0 0 0 0 12 100 100
92 4 5 1 2 0 0 0 0 0 0 0 0 0 0 0 0 0 0 0 0 0 0 0 0 0 0 0 0 0 0 1 0 5 22 4 3 21 63 6 5 3 0 0 0 0 92 100 100
13 97 13 2 3 22 1 0 0 0 0 0 0 0 0 0 0 0 0 0 0 0 0 0 0 0 0 0 0 0 0 0 0 0 0 0 0 0 1 1 4 36 5 4 0 3 42 100 100
58 25 5 42 0 15 81 40 0 4 0 0 0 0 0 0 0 0 0 0 0 0 0 0 0 0 0 0 0 0 0 0 0 0 0 0 0 0 0 0 0 0 0 0 0 0 24 100 85
71 100 96 5 4 2 5 2 3 3 1 0 0 0 0 0 0 0 0 0 0 0 0 0 0 0 0 0 0 0 0 0 0 0 0 0 0 0 0 0 0 0 0 0 0 0 0 12 88